Погода в Рошиорий-де-Веде

Румыния     44°06′30″N   24°59′41″E
темп.,
°C
ветер,
м/с
пор.,
м/с
влажн.,
%
обл.,
%
осадки,
мм/ч
давл.,
гПа
погр.,
м
24 июля, сб
сб2400:00+20юв33530 0.0 101533
03:00+20всв225275 0.0 101626
06:00+20в2251100 0.0 101531
09:00+20св125767 0.1 101668
12:00+24с224895 0.2 1016686
15:00+28сз323519 0.2 10151817
18:00+28всв323660 0.0 10151676
21:00+23в33501 0.0 101534
25 июля, вс
вс2500:00+21вюв33575 0.0 101627
03:00+19в22590 0.0 101614
06:00+18всв33640 0.0 101735
09:00+23всв33490 0.0 1018383
12:00+29в45320 0.0 10172042
15:00+31всв55240 0.0 10162361
18:00+31всв55230 0.0 10152296
21:00+24всв510420 0.0 1016160
26 июля, пн
пн2600:00+21в49480 0.0 1017132
03:00+20в45600 0.0 101783
06:00+18всв346532 0.0 101854
09:00+24в464713 0.0 1018368
12:00+31в442499 0.0 10181319
15:00+34всв431837 0.0 10171755
18:00+34св54195 0.0 10161552
21:00+26всв49380 0.0 1016137
27 июля, вт
вт2700:00+23всв41045100 0.0 1017150
03:00+22всв454830 0.0 101777
06:00+20св34540 0.0 101857
09:00+26в233923 0.0 1019306
12:00+33всв222467 0.0 1018923
15:00+37св32200 0.0 10161648
18:00+38всв33194 0.0 10151585
21:00+29всв47373 0.0 101593
28 июля, ср
ср2800:00+26вюв46415 0.0 101587
03:00+24вюв46430 0.0 101585
06:00+22всв46505 0.0 101586
09:00+28вюв333632 0.0 1016353
12:00+36ююз23230 0.0 10141055
15:00+40зсз35160 0.0 10122369
18:00+40сз68163 0.0 10112772
21:00+32св472937 0.0 1011100